Location: ????????
(55.3155°N, 39.2900°E)
Time: 17:25:58
(UTC+00:00)

ACS3 Solar Sail - Pass Details

Date: 14 November 2025
Orbit: 889 x 1003 km, 97.3° (Epoch: 06 December)

Event Time Altitude Azimuth Distance (km) Brightness Sun altitude
Rises 01:48:11 0° 11° (NNE) 3,544 4.9 -26.1°
Reaches altitude 10° 01:50:38 10° 7° (N) 2,611 4.2 -25.8°
Enters shadow 01:55:28 47° 318° (NW) 1,221 2.0 -25.1°
